STARLINK-4154 (53133 NORAD) Tracking and Keplerian Element Data

This shows tracking and keplerian element data for the satellite.

Feedback or suggestion? Click here.




ElementValue
Catalog53133
NameSTARLINK-4154
Epoch Orbit130
Epoch Day269.91667824
Epoch Year2022
RAAN69.4746
Inclination53.2163
Eccentricity0.0001804
Argument of Perigee55.2765
Mean Anonmoly221.4682
Mean Motion15.08813358
Decay Rate0.00048147
L11 53133U 22083B 22269.91667824 .00048147 00000+0 30249-2 0 9997
L22 53133 53.2163 69.4746 0001804 55.2765 221.4682 15.08813358 1307

Live tracking and technical data element details for STARLINK-4154 (NORAD 53133). STARLINK-4154 can be tracked NOW for your location showing map with azimuth and elevation plus other details from your city location.

Track the satellite on the map from your city or location and see movement details for azimuth, elevation, latitude, longitude, range, height, and movement on the map or in text.







IsCatalogInMostPopularTable: catalog: 53133, numindb: 4
Update: records affected: 1



GetName: 53133 STARLINK-4154

Hit Count: updated at: Fri, 30 Sep 2022 02:20:54 GMT